Location: Holkham
(52.9500°N, 0.8167°E)
Time: 05:47:29
(UTC+00:00)

Meteor 1-11 Rocket - Pass Details

Date: 19 May 2025
Orbit: 829 x 915 km, 81.2° (Epoch: 18 June)

Event Time Altitude Azimuth Distance (km) Brightness Sun altitude
Rises 22:41:56 0° 344° (NNW) 3,391 8.8 -15.4°
Reaches altitude 10° 22:44:22 10° 341° (NNW) 2,450 7.5 -15.6°
Maximum altitude 22:49:47 59° 263° (W) 961 4.0 -15.8°
Enters shadow 22:53:19 22° 191° (S) 1,759 4.8 -15.9°
